Hourly Weather Roundup
Issued by NWS Central Illinois

Home | Current Version | Previous Version | Text Only | Print | Product List | Glossary On
Versions: 1 2 3 4 5 6 7 8 9 10 11 12 13 14 15 16 17 18 19 20 21 22 23 24 25 26 27 28 29 30 31 32 33 34 35 36 37 38 39 40 41 42 43 44 45 46 47 48 49 50
000
NZUS43 KILX 280610
HWRILX

AREA WEATHER ROUNDUP
NATIONAL WEATHER SERVICE, LINCOLN IL
100 AM CDT MON JUL 28 2014


CITY           SKY/WX    TMP DP  RH WIND       PRES   REMARKS
BLOOMINGTON    CLEAR     66  58  75 NW16      29.95R
CHAMPAIGN      CLEAR     63  60  90 NW10      29.91S
6HR MIN TEMP:  63; 6HR MAX TEMP:  75;

DECATUR        CLEAR     67  59  75 NW14G21   29.94S
6HR MIN TEMP:  67; 6HR MAX TEMP:  78;

FLORA          CLEAR     67  58  71 NW10      29.95S
6HR MIN TEMP:  67; 6HR MAX TEMP:  82;

GALESBURG      CLEAR     63  61  93 NW6       29.99R
JACKSONVILLE   CLEAR     67  60  78 NW8       30.00S
6HR MIN TEMP:  65; 6HR MAX TEMP:  77;

LACON          CLEAR     65  59  80 N5        29.95R
6HR MIN TEMP:  65; 6HR MAX TEMP:  75;

LAWRENCEVILLE  CLEAR     67  60  78 NW9       29.92R
6HR MIN TEMP:  67; 6HR MAX TEMP:  83;

LITCHFIELD     CLEAR     64  58  81 NW7       29.98S
$$


CITY           SKY/WX    TMP DP  RH WIND       PRES   REMARKS
LINCOLN        CLEAR     66  60  81 CALM      29.93S
6HR MIN TEMP:  66; 6HR MAX TEMP:  77;

MACOMB         CLEAR     62  60  93 NW8       30.01S
MATTOON        CLEAR     64  59  83 W12       29.92R
6HR MIN TEMP:  64; 6HR MAX TEMP:  78;

MT CARMEL AP   CLEAR     70  61  73 NW8       29.92S
OLNEY-NOBLE AP CLEAR     66  59  77 NW7       29.94S
PARIS          CLEAR     64  60  88 NW7       29.91R
6HR MIN TEMP:  63; 6HR MAX TEMP:  78;

PEORIA         CLEAR     67  59  75 NW8       29.96R
6HR MIN TEMP:  67; 6HR MAX TEMP:  77;

PONTIAC        CLEAR     64  63  94 NW6       29.93R
RANTOUL        CLEAR     67  59  76 NW9       29.92S
6HR MIN TEMP:  65; 6HR MAX TEMP:  77;

ROBINSON       CLEAR     67  61  79 W8        29.91S
6HR MIN TEMP:  67; 6HR MAX TEMP:  82;

SPRINGFIELD    CLEAR     67  60  78 W9        29.97R
6HR MIN TEMP:  67; 6HR MAX TEMP:  77;

TAYLORVILLE    CLEAR     63  59  88 W8        29.96S
$$

...REGIONAL REPORTS...


CITY           SKY/WX    TMP DP  RH WIND       PRES   REMARKS
CHICAGO O`HARE CLOUDY    66  51  58 N16G26    29.92R
KANKAKEE       CLOUDY    66  60  81 N10G17    29.91R
MOLINE         MOCLDY    68  60  75 NW8       29.99R
MOUNT VERNON   CLEAR     70  55  60 N6        29.97R
PITTSFIELD     CLEAR     67  58  72 W9        30.03S
QUINCY         CLEAR     64  58  80 NW7       30.03R
ROCKFORD       PTCLDY    65  56  72 N22       29.99R
$$


CITY           SKY/WX    TMP DP  RH WIND       PRES   REMARKS
BURLINGTON     CLEAR     66  60  81 NW9       30.01R
CEDAR RAPIDS   CLEAR     63  59  87 NW10      30.04R
DES MOINES     CLEAR     66  57  72 N12G21    30.10R
KIRKSVILLE     CLEAR     63  57  81 NW7       30.09S
OTTUMWA        CLEAR     64  58  80 NW13      30.06R
ST LOUIS       CLEAR     72  58  61 NW13      30.01R
$$


CITY           SKY/WX    TMP DP  RH WIND       PRES   REMARKS
TERRE HAUTE    CLEAR     68  58  70 NW14      29.88S
EVANSVILLE     CLEAR     71  58  63 W5        29.93R
INDIANAPOLIS   MOCLDY    66  57  72 W13       29.84S
LAFAYETTE      MOCLDY    64  58  80 NW8       29.86R
MADISON        CLEAR     60  54  80 NW7       30.01R
MILWAUKEE      PTCLDY    62  52  69 NW9       29.95R
$$




USA.gov is the U.S. government's official web portal to all federal, state and local government web resources and services.